Regional Weather Roundup
Issued by NWS

Home | Current Version | Previous Version | Graphics & Text | Print | Product List | Glossary On
Versions: 1 2 3 4 5 6 7 8 9 10 11 12 13 14 15 16 17 18 19 20 21 22 23 24 25 26 27 28 29 30 31 32 33 34 35 36 37 38 39 40 41 42 43 44 45 46 47 48 49 50
000
ASUS43 KMKX 211720
RWRWI

WISCONSIN REGIONAL WEATHER ROUNDUP
NATIONAL WEATHER SERVICE MILWAUKEE/SULLIVAN WI
1100 AM CST WED FEB 21 2018

NOTE: "FAIR" INDICATES FEW OR NO CLOUDS BELOW 12,000 FEET WITH NO
SIGNIFICANT WEATHER AND/OR OBSTRUCTIONS TO VISIBILITY.

WIZ001-002-006>008-014>016-023>028-211800-
NORTHWEST WISCONSIN

CITY           SKY/WX    TMP DP  RH WIND       PRES   REMARKS
SUPERIOR ARPT  FAIR      13   0  56 SW14      30.56R WCI  -2
ASHLAND        FAIR      13   3  64 SW10      30.54R WCI   0
HAYWARD        FAIR      11   1  64 SW9       30.54R WCI  -2
SIREN          FAIR      14   1  57 SW7       30.58R WCI   4
CUMBERLAND     FAIR      10   1  67 SW6       30.57R WCI   1
RICE LAKE      FAIR      10   2  70 SW6       30.61R WCI   1
CHETEK         FAIR      11   1  66 SW6       30.61R WCI   1
LADYSMITH      FAIR      12   4  68 S7        30.59R WCI   2
EAU CLAIRE     FAIR      11   3  70 W8        30.62R WCI  -1
MENOMONIE      FAIR      14   3  61 CALM      30.63R
NEW RICHMOND   FAIR      13   2  63 SW3       30.61R
OSCEOLA        FAIR      13   2  59 CALM      30.64R
$$

WIZ003>005-009-010-017-018-211800-
NORTH CENTRAL WISCONSIN

CITY           SKY/WX    TMP DP  RH WIND       PRES   REMARKS
MANITOWISH WTR FAIR      10   3  76 SW6       30.48R WCI   0
ARBOR VITAE    FAIR      14   6  72 W5        30.48R WCI   6
WOODRUFF       FAIR      14   6  72 W5        30.48R WCI   6
RHINELANDER    FAIR      13   4  67 W10       30.49R WCI   0
EAGLE RIVER    FAIR      14   2  61 W8        30.47R WCI   2
LAND O LAKES   FAIR      15   4  63 W6        30.48R WCI   6
PHILLIPS       FAIR      11   4  72 W6        30.52R WCI   2
TOMAHAWK       FAIR      13   4  65 W5        30.52R WCI   6
MEDFORD        FAIR      11   3  70 W6        30.53R WCI   2
MERRILL        FAIR      16   6  64 W5        30.54R WCI   9
$$

WIZ029-030-035-036-043>047-211800-
CENTRAL WISCONSIN

CITY           SKY/WX    TMP DP  RH WIND       PRES   REMARKS
WAUSAU         FAIR      11   4  73 W9        30.55R WCI  -2
MOSINEE        MOSUNNY   12   7  79 W8        30.57R WCI   1
MARSHFIELD     FAIR      12   4  70 W7        30.56R WCI   1
STEVENS POINT  FAIR      13   4  66 W7        30.59R WCI   3
WAUPACA        FAIR      21   6  53 W8        30.60R WCI  12
WAUTOMA        FAIR      20   8  60 W9        30.61  WCI   9
WISC RAPIDS    FAIR      16   6  65 N8        30.60R WCI   5
CAMP DOUGLAS   PTSUNNY   18   9  68 W7        30.61R WCI   8
$$

WIZ011>013-019>022-031-037>040-048>050-211800-
NORTHEAST WISCONSIN

CITY           SKY/WX    TMP DP  RH WIND       PRES   REMARKS
ANTIGO         FAIR      13   5  69 W7        30.51R WCI   3
SHAWANO        FAIR      23   9  54 W9        30.57R WCI  13
OCONTO         FAIR      20   8  59 W8        30.57R WCI  11
STURGEON BAY   FAIR      20  10  65 W9        30.56R WCI   9
GREEN BAY      FAIR      22  11  62 W13       30.58R WCI  10
MANITOWOC      NOT AVBL
APPLETON       MOSUNNY   19   7  58 W10       30.56R WCI   8
CLINTONVILLE   FAIR      20   6  56 W9        30.58R WCI   9
OSHKOSH        FAIR      19   8  62 NW14      30.57R WCI   6
$$

WIZ032>034-041-042-053>061-211800-
SOUTHWEST WISCONSIN

CITY           SKY/WX    TMP DP  RH WIND       PRES   REMARKS
LA CROSSE      FAIR      17   6  62 NW5       30.65R WCI  10
SPARTA         FAIR      17  10  73 W6        30.64R WCI   9
VIROQUA        FAIR      15   8  75 CALM      30.59S
BOSCOBEL       FAIR      20   6  55 NW6       30.65R WCI  12
PRAIRIE DU CHI FAIR      18   3  51 NW8       30.64S WCI   8
PLATTEVILLE    FAIR      20  13  76 N8        30.60S WCI  10
$$

WIZ056-057-062-063-064-067-068-211800-
SOUTH CENTRAL WISCONSIN

CITY           SKY/WX    TMP DP  RH WIND       PRES   REMARKS
REEDSBURG      FAIR      18   6  58 N6        30.61S WCI  10
BARABOO/DELLS  FAIR      19   6  57 NW5       30.60R WCI  12
LONE ROCK      FAIR      20  10  65 NW7       30.63R WCI  11
MINERAL POINT  FAIR      21  16  79 NW9       30.58R WCI  11
MADISON        PTSUNNY   22  13  68 N10       30.59R WCI  11
MIDDLETON      FAIR      23  13  67 NW9       30.60R WCI  13
WATERTOWN      FAIR      21  13  73 N10       30.58R WCI  10
MONROE         FAIR      23  16  74 NW5       30.57S WCI  17
JANESVILLE     CLOUDY    25  18  74 N9        30.58R WCI  15
$$

WIZ051-052-058>065-066-070>072-211800-
SOUTHEAST WISCONSIN

CITY           SKY/WX    TMP DP  RH WIND       PRES   REMARKS
MILWAUKEE      CLOUDY    27  15  61 NW10      30.57R WCI  17
WAUKESHA       SUNNY     21  14  73 W10       30.58R WCI  10
MILWAUKEE/TIMM SUNNY     25  10  54 NW13      30.58R WCI  13
RACINE         FAIR      27  15  61 NW8       30.58R WCI  19
BURLINGTON     FAIR      25  15  65 NW12      30.57S WCI  14
KENOSHA        FAIR      26  16  65 NW13      30.56R WCI  15
FOND DU LAC    FAIR      21  10  62 N12       30.58R WCI   9
SHEBOYGAN      FAIR      22  15  75 NW9       30.57R WCI  12
WEST BEND      FAIR      23  16  74 NW10      30.57R WCI  12
JUNEAU         FAIR      18  11  72 NW6       30.60R WCI  10
$$

LSZ147-162-211800-
LAKE SUPERIOR

STATION/POSITION TIME  TEMP    WIND        PRES    WAVE
                       AIR SEA DIR/SP/G            HT/PER
                 (UTC) (F)     (DEG/KT/KT) (MB)    (FT/S)
DEVILS ISLAND    1700   11     230/ 10/ 13 1035.1R
SAXON HARBOR     1630   15     230/  8/ 11 1033.2R
$$

LMZ867-665-643>646-211800-
LAKE MICHIGAN

STATION/POSITION TIME  TEMP    WIND        PRES    WAVE
                       AIR SEA DIR/SP/G            HT/PER
                 (UTC) (F)     (DEG/KT/KT) (MB)    (FT/S)
NORTHPORT PIER   1640   19                 1033.9R
KEWAUNEE LAKESHO 1654   21     310/  6/ 12 1034.0R
SHEBOYGAN LAKESH 1700   22     310/ 11/ 14 1036.3R
PORT WASHINGTON  1630   24     320/  6/ 11 1036.2R
MILWAUKEE LAKESH 1700   25     320/  8/ 10   N/A
KENOSHA   LAKESH 1700   26     330/  9/ 12 1035.2
$$

TC  - TEMPERATURE IN CELSIUS
VSB - VISIBILITY IN STATUTE MILES
WCI - WIND CHILL INDEX
HX  - HEAT INDEX





USA.gov is the U.S. government's official web portal to all federal, state and local government web resources and services.